{"data":{"norad_id":29494,"intl_designator":"2006-043A","name":"DIRECTV 9S","alt_names":[],"object_type":"PAYLOAD","status":"ACTIVE","operator":null,"country":"US","launch_date":"2006-10-13","launch_site_code":"FRGUI","launch_vehicle":null,"mission":null,"orbit_class":"UNKNOWN","rcs_meters":271.1266,"size_class":null,"mass_kg":null,"dimensions":null,"purposes":["comms"],"wikipedia_slug":null,"has_3d_model":false,"image_url":null,"decayed_at":null,"tle_current":{"epoch":"2026-09-19T19:35:21.256800Z","epoch_age_seconds":63300,"freshness":"FRESH","line1":"1 29494U 06043A   26262.81621825 -.00000082  00000+0  00000+0 0  9991","line2":"2 29494   2.6592  79.6560 0006589 194.1188 210.0421  0.99097545 52338","mean_motion":0.99097545,"eccentricity":0.0006589,"inclination_deg":2.6592,"raan_deg":79.656,"arg_perigee_deg":194.1188,"mean_anomaly_deg":210.0421,"bstar":0,"rev_number":5233,"period_min":1453.1136972162,"perigee_km":36091.021908445,"apogee_km":36147.024666271,"semimajor_km":42497.160287358,"source":"CELESTRAK","updated_at":"2026-09-20T09:00:35.516166Z"}}}